sat.trackr.live / text

‹ back to catalog

STARLINK-33614

NORAD 63372 · 2025-063K

PAYLOAD ACTIVE UNKNOWN

§ Identity

Operator
Country
US
Launch date
2025-03-26
Launch site
AFWTR
Launch vehicle
Mass (kg)
RCS (m²)

Purposes: comms

External: N2YO · Heavens-Above · Gunter

§ Orbital elements

Epoch: 2026-05-25T03:52:42.271104Z

Period
94.11 min
Inclination
53.1596°
Eccentricity
0.0001262
Mean motion
15.30204726 rev/d
Perigee alt
474.3 km
Apogee alt
476.1 km
Semi-major
6,853.3 km
B*
9.6367e-4
RAAN
54.7010°
Arg perigee
87.9263°
Mean anomaly
272.1882°
Rev number
6,650

§ Raw data

STARLINK-336141 63372U 25063K   26145.16160036  .00028295  00000+0  96367-3 0  99972 63372  53.1596  54.7010 0001262  87.9263 272.1882 15.30204726 66502

JSON: /api/v1/satellites/63372 · /tle

For live sub-satellite position, see the globe view (requires WebGL).

§ Visibility from observer

Set your observer location to see the next 7 days of passes ≥ 10°. The values pass through the URL so the page stays shareable.

No JS? Fill the form by hand. The geolocation button needs JavaScript.